Regional Weather Roundup
Issued by NWS

Home | Current Version | Previous Version | Text Only | Print | Product List | Glossary On
Versions: 1 2 3 4 5 6 7 8 9 10 11 12 13 14 15 16 17 18 19 20 21 22 23 24 25 26 27 28 29 30 31 32 33 34 35 36 37 38 39 40 41 42 43 44 45 46 47 48 49 50
000
ASUS43 KLSX 240707
RWRMO

WEATHER SUMMARY FOR MISSOURI
NATIONAL WEATHER SERVICE SPRINGFIELD MO
200 AM CDT THU APR 24 2014

NOTE: "FAIR" INDICATES FEW OR NO CLOUDS BELOW 12,000 FEET WITH NO
       SIGNIFICANT WEATHER AND/OR OBSTRUCTIONS TO VISIBILITY.
       CURRENT SKY AND/OR WEATHER CONDITIONS ARE NOT AVAILABLE FOR
       CHILLICOTHE AND FARMINGTON.

MOZ001>031-035>038-043-044-053-054-240800-
...NORTHERN AND WESTERN MISSOURI...

CITY           SKY/WX    TMP DP  RH WIND       PRES   REMARKS
KANSAS CTY INT CLOUDY    68  44  42 SE26G37   29.63F
KANSAS C DTWN  MOCLDY    69  45  41 SE13G25   29.64F
LEE`S SUMMIT   PTCLDY    66  43  43 S16G24    29.69F
ST JOSEPH      CLOUDY    63  42  46 SE17      29.59F
CHILLICOTHE      N/A     59  39  47 SE9       29.75F
KIRKSVILLE     MOCLDY    53  36  52 SE15      29.80F

$$
MOZ066>068-077>081-088>096-101>105-240800-
...SOUTHWEST MISSOURI...

CITY           SKY/WX    TMP DP  RH WIND       PRES   REMARKS
SPRINGFIELD    CLOUDY    61  44  53 S20       29.82F
JOPLIN         CLOUDY    67  47  48 S18G26    29.74F

$$
MOZ032>034-039>042-045>050-055>058-069>072-240800-
...CENTRAL MISSOURI...

CITY           SKY/WX    TMP DP  RH WIND       PRES   REMARKS
COLUMBIA       CLOUDY    57  38  48 SE14      29.82S
JEFFERSON CITY CLOUDY    60  38  43 SE9       29.83S HAZE
ROLLA          CLOUDY    57  35  43 SE13      29.85F
SEDALIA        CLOUDY    65  41  41 S17       29.78F
WHITEMAN AFB   CLOUDY    64  37  36 S15G24    29.74F
OSAGE BEACH    MOCLDY    61  36  39 S10       29.85S

$$
MOZ051-052-059>065-240800-
...EAST CENTRAL MISSOURI...

CITY           SKY/WX    TMP DP  RH WIND       PRES   REMARKS
ST LOUIS INTL  CLOUDY    57  32  38 SE13      29.91F
SPIRIT OF STL  CLOUDY    56  32  40 SE7       29.89F
ST CHARLES     CLOUDY    54  35  48 SE10      29.90F

$$
MOZ072>076-082>087-097>100-106>115-240800-
...SOUTH CENTRAL AND SOUTHEAST MISSOURI...

CITY           SKY/WX    TMP DP  RH WIND       PRES   REMARKS
CAPE GIRARDEAU PTCLDY    51  38  60 E7        29.93F
FARMINGTON     MOCLDY    54  34  47 S7        29.94F
POPLAR BLUFF   PTCLDY    54  39  57 E5        29.92F
WEST PLAINS    CLOUDY    57  37  47 SE8       29.91F

$$



USA.gov is the U.S. government's official web portal to all federal, state and local government web resources and services.